Location: Arpaise
(41.0333°N, 14.7333°E)
Time: 15:27:59
(UTC+00:00)

Cosmos 2151 - Pass Details

Date: 05 July 2020
Orbit: 580 x 602 km, 82.5° (Epoch: 10 August)

Event Time Altitude Azimuth Distance (km) Brightness Sun altitude
Exits shadow 21:47:18 44° 71° (ENE) 838 3.6 -23.7°
Drops below altitude 10° 21:50:53 10° 20° (NNE) 1,941 6.3 -24.0°
Sets 21:53:09 0° 15° (NNE) 2,845 7.3 -24.1°
